Tracking 32964 objects as of 21-Jan-2026
HD Live streaming from Space Station
objects crossing your sky now

CZ-4 DEB

Track CZ-4 DEB now!
10-day predictions


NORAD ID: 20894
Int'l Code: 1990-081BE
Perigee: 770.7 km
Apogee: 797.8 km
Inclination: 98.5 °
Period: 100.4 minutes
Semi major axis: 7155 km
RCS: 0.0352 m2 (small)
Launch date: September 3, 1990
Source: People's Republic of China (PRC)
Launch site: Taiyaun Space Center, China (TSC)

Note: This is SATELLITE DEBRIS
Your satellite tracking list
Your tracking list is empty




NASA's NSSDC Master Catalog

Two Line Element Set (TLE):
1 20894U 90081BE  26019.95645624  .00002458  00000-0  88749-3 0  9998
2 20894  98.5465  20.4741 0018880  27.3940  26.4629 14.34384441829116
Source of the keplerian elements: AFSPC